Hailey, ID

1:26 AM MST on February 24, 2018 (GMT -0700)
Friedman Memorial

Weather History for KSUN - March, 2013

Change the Weather History Date:

Thursday, March 7, 2013

  Actual Average Record
Temperature  
Mean Temperature 28 °F -  
Max Temperature 39 °F 41 °F 60 °F (2015)
Min Temperature 17 °F 19 °F 10 °F (1997)
Degree Days  
Heating Degree Days 37    
Moisture  
Dew Point 20 °F    
Average Humidity 73    
Maximum Humidity 86    
Minimum Humidity 36    
Precipitation  
Precipitation 0.00 in - - ()
Sea Level Pressure  
Sea Level Pressure 29.96 in    
Wind  
Wind Speed 8 mph (NW)    
Max Wind Speed 15 mph    
Max Gust Speed 18 mph    
Visibility 10 miles    
Events      
Averages and records for this station are not official NWS values.
T = Trace of Precipitation, MM = Missing Value Source: NWS Daily Summary

Daily Weather History Graph

Daily Weather History Graph

Search for Another Location

Airport or City:

Trip Planner

Search our weather history database for the weather conditions in past years. The results will help you decide how hot, cold, wet, or windy it might be!

Date:

Astronomy

Mar. 07, 2013 Rise Set
Actual Time 7:02 AM MST 6:34 PM MST
Civil Twilight 6:34 AM MST 7:02 PM MST
Nautical Twilight 6:01 AM MST 7:35 PM MST
Astronomical Twilight 5:27 AM MST 8:09 PM MST
Moon 4:12 AM MST (3/7) 2:20 PM MST (3/7)
Length of Visible Light 12h 28m
Length of Day
11h 31m
Waning Crescent, 19% of the Moon is Illuminated
Mar 7
Waning Crescent
Mar 11
New
Mar 19
First Quarter
Mar 27
Full
Apr 2
Last Quarter

Hourly Weather History & Observations

Time (MST) Temp. Windchill Dew Point Humidity Pressure Visibility Wind Dir Wind Speed Gust Speed Precip Events Conditions
12:15 AM 28.4 °F 19.7 °F 23.0 °F 80% 29.93 in 10.0 mi NW 9.2 mph - N/A   Clear
12:35 AM 28.4 °F 19.1 °F 23.0 °F 80% 29.93 in 10.0 mi NNW 10.4 mph - N/A   Clear
12:55 AM 28.4 °F 21.2 °F 23.0 °F 80% 29.93 in 10.0 mi NW 6.9 mph - N/A   Clear
1:15 AM 26.6 °F 19.1 °F 21.2 °F 80% 29.94 in 10.0 mi NW 6.9 mph - N/A   Clear
1:35 AM 26.6 °F 19.1 °F 21.2 °F 80% 29.96 in 10.0 mi WNW 6.9 mph - N/A   Clear
1:55 AM 26.6 °F 22.6 °F 21.2 °F 80% 29.96 in 10.0 mi NW 3.5 mph - N/A   Clear
2:15 AM 26.6 °F 19.1 °F 21.2 °F 80% 29.96 in 10.0 mi NW 6.9 mph - N/A   Clear
2:35 AM 24.8 °F 15.3 °F 21.2 °F 86% 29.96 in 10.0 mi NW 9.2 mph - N/A   Clear
2:55 AM 24.8 °F 14.0 °F 21.2 °F 86% 29.94 in 10.0 mi NNW 11.5 mph - N/A   Clear
3:15 AM 23.0 °F 13.1 °F 19.4 °F 86% 29.94 in 10.0 mi NNW 9.2 mph - N/A   Clear
3:35 AM 24.8 °F 19.1 °F 19.4 °F 80% 29.96 in 10.0 mi NW 4.6 mph - N/A   Clear
3:55 AM 23.0 °F 17.0 °F 19.4 °F 86% 29.96 in 10.0 mi NNW 4.6 mph - N/A   Clear
4:15 AM 23.0 °F 14.7 °F 19.4 °F 86% 29.96 in 10.0 mi NNW 6.9 mph - N/A   Clear
4:35 AM 23.0 °F 14.7 °F 19.4 °F 86% 29.97 in 10.0 mi North 6.9 mph - N/A   Clear
4:55 AM 23.0 °F 11.1 °F 17.6 °F 80% 29.97 in 10.0 mi NNW 12.7 mph - N/A   Clear
5:15 AM 21.2 °F 9.5 °F 17.6 °F 86% 29.97 in 10.0 mi NNW 11.5 mph - N/A   Clear
5:35 AM 21.2 °F 11.7 °F 17.6 °F 86% 29.97 in 10.0 mi NW 8.1 mph - N/A   Clear
5:55 AM 21.2 °F 8.9 °F 15.8 °F 80% 29.98 in 10.0 mi NW 12.7 mph - N/A   Clear
6:47 AM 19.4 °F 7.2 °F 14.0 °F 80% 29.99 in 10.0 mi WNW 11.5 mph - N/A   Partly Cloudy
7:47 AM 17.6 °F 5.0 °F 12.2 °F 79% 30.02 in 10.0 mi WNW 11.5 mph 18.4 mph N/A   Partly Cloudy
8:47 AM 21.2 °F 7.8 °F 12.2 °F 68% 30.03 in 10.0 mi NW 15.0 mph - N/A   Partly Cloudy
9:47 AM 24.8 °F 13.4 °F 15.8 °F 69% 30.02 in 10.0 mi NW 12.7 mph - N/A   Partly Cloudy
10:47 AM 28.4 °F 19.7 °F 17.6 °F 64% 30.02 in 10.0 mi NW 9.2 mph - N/A   Scattered Clouds
11:47 AM 32.0 °F 23.0 °F 15.8 °F 51% 30.00 in 10.0 mi NW 11.5 mph - N/A   Scattered Clouds
12:47 PM 35.6 °F 29.9 °F 15.8 °F 44% 29.99 in 10.0 mi NW 6.9 mph - N/A   Mostly Cloudy
1:50 PM 37.4 °F 32.8 °F 12.2 °F 36% 29.95 in 10.0 mi NW 5.8 mph - N/A   Overcast
2:55 PM 39.2 °F 35.9 °F 14.0 °F 36% 29.95 in 10.0 mi SE 4.6 mph - N/A   Overcast
3:47 PM 37.4 °F 32.1 °F 21.2 °F 52% 29.95 in 10.0 mi ESE 6.9 mph - N/A   Overcast
4:47 PM 37.4 °F 32.8 °F 23.0 °F 56% 29.94 in 10.0 mi ESE 5.8 mph - N/A   Overcast
5:47 PM 35.6 °F 30.7 °F 24.8 °F 65% 29.94 in 10.0 mi ESE 5.8 mph - N/A   Overcast
6:47 PM 35.6 °F 32.8 °F 24.8 °F 65% 29.94 in 10.0 mi East 3.5 mph - N/A   Overcast
7:47 PM 33.8 °F 28.6 °F 26.6 °F 75% 29.94 in 10.0 mi ESE 5.8 mph - N/A   Overcast
8:47 PM 30.2 °F 26.7 °F 24.8 °F 80% 29.94 in 10.0 mi West 3.5 mph - N/A   Scattered Clouds
9:47 PM 30.2 °F 21.9 °F 23.0 °F 75% 29.94 in 10.0 mi WNW 9.2 mph - N/A   Clear
10:15 PM 30.2 °F 22.6 °F 23.0 °F 75% 29.93 in 10.0 mi NW 8.1 mph - N/A   Clear
10:35 PM 30.2 °F 23.4 °F 23.0 °F 75% 29.94 in 10.0 mi NNW 6.9 mph - N/A   Clear
10:47 PM 28.4 °F 20.4 °F 21.2 °F 74% 29.93 in 10.0 mi NW 8.1 mph - N/A   Clear
11:15 PM 28.4 °F 21.2 °F 23.0 °F 80% 29.93 in 10.0 mi NW 6.9 mph - N/A   Clear
11:35 PM 28.4 °F 19.7 °F 21.2 °F 74% 29.93 in 10.0 mi NW 9.2 mph - N/A   Clear
11:55 PM 28.4 °F 18.5 °F 21.2 °F 74% 29.93 in 10.0 mi NW 11.5 mph - N/A   Clear